Location: Cerezo de Arriba
(41.2389°N, 3.5585°W)
Time: 03:49:13
(UTC+00:00)

Cosmos 1238 Rocket - Pass Details

Date: 19 May 2025
Orbit: 356 x 776 km, 82.9° (Epoch: 23 June)

Event Time Altitude Azimuth Distance (km) Brightness Sun altitude
Exits shadow 21:25:02 26° 80° (E) 1,008 3.9 -17.7°
Drops below altitude 10° 21:27:35 10° 34° (NE) 1,604 5.4 -18.1°
Sets 21:29:43 0° 21° (NNE) 2,415 6.5 -18.3°
